| time (UTC) | temp F | wind direction | speed MPH | gust MPH | rain 1hr in | rain 24hr in | rain mn in | humidity % | barometer mb |
| 20260505164421 | 62 | 345 | 0.0 | 2.0 | 0.00 | 0.00 | 0.00 | 50 | 1005.1 |
| 20260505163919 | 62 | 315 | 1.0 | 1.0 | 0.00 | 0.00 | 0.00 | 50 | 1005.4 |
| 20260505163424 | 61 | 253 | 0.0 | 3.0 | 0.00 | 0.00 | 0.00 | 51 | 1005.1 |
| 20260505162918 | 62 | 314 | 1.0 | 6.0 | 0.00 | 0.00 | 0.00 | 50 | 1005.4 |
| 20260505162421 | 62 | 49 | 1.0 | 3.0 | 0.00 | 0.00 | 0.00 | 50 | 1005.4 |
| 20260505161920 | 63 | 272 | 1.0 | 2.0 | 0.00 | 0.00 | 0.00 | 49 | 1005.4 |
| 20260505161419 | 63 | 310 | 1.0 | 3.0 | 0.00 | 0.00 | 0.00 | 49 | 1005.1 |
| 20260505160923 | 63 | 333 | 0.0 | 1.0 | 0.00 | 0.00 | 0.00 | 49 | 1005.4 |
| 20260505160421 | 63 | 286 | 1.0 | 2.0 | 0.00 | 0.00 | 0.00 | 49 | 1005.4 |
| 20260505152921 | 65 | 34 | 1.0 | 1.0 | 0.00 | 0.00 | 0.00 | 48 | 1005.4 |
| 20260505152422 | 64 | 78 | 0.0 | 0.0 | 0.00 | 0.00 | 0.00 | 48 | 1005.4 |
| 20260505151923 | 64 | 261 | 0.0 | 1.0 | 0.00 | 0.00 | 0.00 | 48 | 1005.4 |
| 20260505151428 | 64 | 136 | 0.0 | 0.0 | 0.00 | 0.00 | 0.00 | 49 | 1005.4 |
| 20260505150918 | 63 | 189 | 0.0 | 1.0 | 0.00 | 0.00 | 0.00 | 48 | 1005.4 |
| 20260505150421 | 63 | 101 | 0.0 | 1.0 | 0.00 | 0.00 | 0.00 | 48 | 1005.4 |
| 20260505140423 | 66 | 160 | 0.0 | 0.0 | 0.00 | 0.00 | 0.00 | 46 | 1005.8 |
| 20260505124918 | 64 | 56 | 1.0 | 3.0 | 0.00 | 0.00 | 0.00 | 50 | 1005.8 |
| 20260505124420 | 64 | 261 | 0.0 | 1.0 | 0.00 | 0.00 | 0.00 | 49 | 1006.1 |
| 20260505123923 | 64 | 14 | 0.0 | 2.0 | 0.00 | 0.00 | 0.00 | 49 | 1006.1 |
| 20260505123418 | 65 | 85 | 1.0 | 2.0 | 0.00 | 0.00 | 0.00 | 49 | 1006.1 |
| 20260505122922 | 65 | 258 | 0.0 | 1.0 | 0.00 | 0.00 | 0.00 | 49 | 1005.8 |
| 20260505122419 | 64 | 307 | 0.0 | 1.0 | 0.00 | 0.00 | 0.00 | 49 | 1006.1 |
| 20260505121921 | 63 | 236 | 0.0 | 2.0 | 0.00 | 0.00 | 0.00 | 50 | 1005.8 |
| 20260505121418 | 64 | 146 | 1.0 | 5.0 | 0.00 | 0.00 | 0.00 | 50 | 1006.1 |
| 20260505120922 | 66 | 335 | 0.0 | 1.0 | 0.00 | 0.00 | 0.00 | 48 | 1006.1 |
| 20260505120418 | 65 | 277 | 0.0 | 1.0 | 0.00 | 0.00 | 0.00 | 48 | 1005.8 |
| 20260505115919 | 66 | 171 | 0.0 | 2.0 | 0.00 | 0.00 | 0.00 | 48 | 1006.1 |
| 20260505115421 | 66 | 178 | 0.0 | 1.0 | 0.00 | 0.00 | 0.00 | 48 | 1006.1 |
| 20260505114918 | 65 | 249 | 0.0 | 1.0 | 0.00 | 0.00 | 0.00 | 49 | 1005.8 |
| 20260505114418 | 65 | 218 | 0.0 | 1.0 | 0.00 | 0.00 | 0.00 | 49 | 1006.1 |
| 20260505113918 | 65 | 317 | 2.0 | 3.0 | 0.00 | 0.00 | 0.00 | 49 | 1006.1 |
| 20260505113419 | 65 | 93 | 1.0 | 2.0 | 0.00 | 0.00 | 0.00 | 49 | 1006.1 |
| 20260505112918 | 66 | 304 | 0.0 | 2.0 | 0.00 | 0.00 | 0.00 | 48 | 1006.1 |
| 20260505112420 | 67 | 18 | 0.0 | 2.0 | 0.00 | 0.00 | 0.00 | 47 | 1006.4 |
| 20260505111920 | 67 | 292 | 0.0 | 0.0 | 0.00 | 0.00 | 0.00 | 47 | 1006.1 |
| 20260505111422 | 67 | 311 | 1.0 | 2.0 | 0.00 | 0.00 | 0.00 | 47 | 1006.1 |
| 20260505110920 | 66 | 216 | 0.0 | 1.0 | 0.00 | 0.00 | 0.00 | 51 | 1006.1 |
| 20260505110419 | 67 | 227 | 0.0 | 1.0 | 0.00 | 0.00 | 0.00 | 49 | 1006.1 |
| 20260505101920 | 61 | 169 | 1.0 | 2.0 | 0.00 | 0.00 | 0.00 | 58 | 1006.8 |
| 20260505101421 | 60 | 146 | 1.0 | 3.0 | 0.00 | 0.00 | 0.00 | 60 | 1006.8 |
| 20260505100921 | 60 | 317 | 0.0 | 2.0 | 0.00 | 0.00 | 0.00 | 59 | 1006.8 |
| 20260505100421 | 59 | 208 | 0.0 | 2.0 | 0.00 | 0.00 | 0.00 | 60 | 1006.8 |
| 20260505095922 | 59 | 215 | 0.0 | 1.0 | 0.00 | 0.00 | 0.00 | 61 | 1006.8 |
| 20260505095421 | 58 | 176 | 0.0 | 5.0 | 0.00 | 0.00 | 0.00 | 63 | 1006.8 |
| 20260505094920 | 58 | 185 | 3.0 | 6.0 | 0.00 | 0.00 | 0.00 | 65 | 1006.8 |
| 20260505094418 | 58 | 218 | 0.0 | 0.0 | 0.00 | 0.00 | 0.00 | 66 | 1006.8 |
| 20260505093920 | 58 | 105 | 2.0 | 3.0 | 0.00 | 0.00 | 0.00 | 66 | 1006.8 |
| 20260505093420 | 58 | 229 | 0.0 | 1.0 | 0.00 | 0.00 | 0.00 | 65 | 1006.8 |
| 20260505092920 | 58 | 342 | 0.0 | 1.0 | 0.00 | 0.00 | 0.00 | 66 | 1006.8 |
| 20260505092419 | 58 | 153 | 0.0 | 1.0 | 0.00 | 0.00 | 0.00 | 66 | 1006.8 |
| 20260505091921 | 58 | 207 | 0.0 | 1.0 | 0.00 | 0.00 | 0.00 | 66 | 1006.8 |
| 20260505091420 | 58 | 336 | 0.0 | 1.0 | 0.00 | 0.00 | 0.00 | 66 | 1006.8 |
| 20260505090920 | 57 | 208 | 0.0 | 1.0 | 0.00 | 0.00 | 0.00 | 68 | 1006.8 |
| 20260505090422 | 57 | 282 | 0.0 | 2.0 | 0.00 | 0.00 | 0.00 | 68 | 1007.1 |
| 20260505085920 | 57 | 86 | 1.0 | 1.0 | 0.00 | 0.00 | 0.00 | 68 | 1007.1 |
| 20260505085421 | 59 | 264 | 0.0 | 1.0 | 0.00 | 0.00 | 0.00 | 67 | 1007.1 |
| 20260505084918 | 58 | 348 | 0.0 | 1.0 | 0.00 | 0.00 | 0.00 | 68 | 1007.1 |
| 20260505084420 | 57 | 331 | 0.0 | 0.0 | 0.00 | 0.00 | 0.00 | 69 | 1007.1 |
| 20260505083919 | 57 | 301 | 0.0 | 1.0 | 0.00 | 0.00 | 0.00 | 69 | 1007.1 |
| 20260505083419 | 56 | 92 | 0.0 | 1.0 | 0.00 | 0.00 | 0.00 | 70 | 1007.1 |
| 20260505082919 | 57 | 221 | 0.0 | 5.0 | 0.00 | 0.00 | 0.00 | 70 | 1007.1 |
| 20260505082418 | 57 | 101 | 0.0 | 1.0 | 0.00 | 0.00 | 0.00 | 69 | 1007.1 |
| 20260505081922 | 57 | 219 | 0.0 | 1.0 | 0.00 | 0.00 | 0.00 | 70 | 1007.1 |
| 20260505081419 | 57 | 58 | 0.0 | 0.0 | 0.00 | 0.00 | 0.00 | 71 | 1007.1 |
| 20260505080919 | 56 | 198 | 0.0 | 1.0 | 0.00 | 0.00 | 0.00 | 72 | 1007.1 |
| 20260505080420 | 56 | 56 | 0.0 | 1.0 | 0.00 | 0.00 | 0.00 | 72 | 1007.1 |
| 20260505075922 | 57 | 84 | 0.0 | 1.0 | 0.00 | 0.00 | 0.00 | 71 | 1007.1 |
| 20260505075421 | 56 | 292 | 0.0 | 0.0 | 0.00 | 0.00 | 0.00 | 72 | 1007.1 |
| 20260505074919 | 57 | 294 | 0.0 | 1.0 | 0.00 | 0.00 | 0.00 | 71 | 1006.8 |
| 20260505074420 | 57 | 223 | 0.0 | 1.0 | 0.00 | 0.00 | 0.00 | 71 | 1006.8 |
| 20260505073922 | 57 | 317 | 0.0 | 2.0 | 0.00 | 0.00 | 0.00 | 73 | 1007.1 |
| 20260505073418 | 56 | 277 | 0.0 | 0.0 | 0.00 | 0.00 | 0.00 | 73 | 1007.1 |
| 20260505072431 | 56 | 168 | 0.0 | 1.0 | 0.00 | 0.00 | 0.00 | 74 | 1007.1 |
| 20260505071922 | 56 | 285 | 0.0 | 0.0 | 0.00 | 0.00 | 0.00 | 74 | 1007.1 |
| 20260505071419 | 56 | 279 | 0.0 | 0.0 | 0.00 | 0.00 | 0.00 | 74 | 1007.1 |
| 20260505070923 | 56 | 239 | 0.0 | 0.0 | 0.00 | 0.00 | 0.00 | 74 | 1006.8 |
| 20260505070420 | 56 | 177 | 0.0 | 0.0 | 0.00 | 0.00 | 0.00 | 76 | 1007.1 |
| 20260505065918 | 56 | 236 | 0.0 | 0.0 | 0.00 | 0.00 | 0.00 | 77 | 1007.1 |
| 20260505065419 | 55 | 272 | 0.0 | 0.0 | 0.00 | 0.00 | 0.00 | 77 | 1007.1 |
| 20260505064918 | 55 | 121 | 0.0 | 0.0 | 0.00 | 0.00 | 0.00 | 77 | 1007.1 |
| 20260505064420 | 55 | 269 | 0.0 | 0.0 | 0.00 | 0.00 | 0.00 | 78 | 1007.1 |
| 20260505063919 | 55 | 313 | 0.0 | 0.0 | 0.00 | 0.00 | 0.00 | 78 | 1007.1 |
| 20260505063419 | 55 | 186 | 0.0 | 1.0 | 0.00 | 0.00 | 0.00 | 78 | 1007.1 |
| 20260505062918 | 54 | 299 | 0.0 | 0.0 | 0.00 | 0.00 | 0.00 | 79 | 1007.1 |
| 20260505062418 | 54 | 219 | 0.0 | 0.0 | 0.00 | 0.00 | 0.00 | 80 | 1006.8 |
| 20260505061918 | 54 | 230 | 0.0 | 1.0 | 0.00 | 0.00 | 0.00 | 80 | 1007.1 |
| 20260505061418 | 54 | 240 | 1.0 | 1.0 | 0.00 | 0.00 | 0.00 | 81 | 1007.1 |
| 20260505060918 | 54 | 67 | 1.0 | 1.0 | 0.00 | 0.00 | 0.00 | 81 | 1007.1 |
| 20260505060419 | 54 | 231 | 0.0 | 0.0 | 0.00 | 0.00 | 0.00 | 82 | 1007.1 |
| 20260505055919 | 54 | 206 | 0.0 | 0.0 | 0.00 | 0.00 | 0.00 | 82 | 1007.1 |
| 20260505055418 | 54 | 336 | 0.0 | 0.0 | 0.00 | 0.00 | 0.00 | 82 | 1007.1 |
| 20260505054919 | 54 | 214 | 0.0 | 1.0 | 0.00 | 0.00 | 0.00 | 83 | 1007.1 |
| 20260505054419 | 54 | 238 | 0.0 | 0.0 | 0.00 | 0.00 | 0.00 | 83 | 1007.1 |
| 20260505053918 | 54 | 208 | 0.0 | 0.0 | 0.00 | 0.00 | 0.00 | 83 | 1007.1 |
| 20260505053418 | 54 | 207 | 0.0 | 0.0 | 0.00 | 0.00 | 0.00 | 84 | 1007.1 |
| 20260505052919 | 53 | 259 | 0.0 | 0.0 | 0.00 | 0.00 | 0.00 | 83 | 1007.1 |
| 20260505052419 | 54 | 223 | 0.0 | 0.0 | 0.00 | 0.00 | 0.00 | 83 | 1007.5 |
| 20260505051918 | 54 | 305 | 0.0 | 0.0 | 0.00 | 0.00 | 0.00 | 83 | 1007.1 |
| 20260505051420 | 53 | 230 | 0.0 | 1.0 | 0.00 | 0.00 | 0.00 | 83 | 1007.1 |
| 20260505050919 | 54 | 246 | 0.0 | 0.0 | 0.00 | 0.00 | 0.00 | 83 | 1007.5 |
| 20260505050419 | 53 | 221 | 0.0 | 0.0 | 0.00 | 0.00 | 0.00 | 83 | 1007.1 |
| 20260505041418 | 54 | 222 | 0.0 | 0.0 | 0.00 | 0.00 | 0.00 | 83 | 1007.5 |
| 20260505040918 | 54 | 192 | 0.0 | 0.0 | 0.00 | 0.00 | 0.00 | 83 | 1007.5 |
| 20260505040418 | 54 | 205 | 0.0 | 0.0 | 0.00 | 0.00 | 0.00 | 83 | 1007.5 |
| 20260505035432 | 54 | 226 | 0.0 | 0.0 | 0.00 | 0.00 | 0.00 | 84 | 1007.1 |
| 20260505034919 | 54 | 8 | 0.0 | 0.0 | 0.00 | 0.00 | 0.00 | 84 | 1007.5 |
| 20260505034418 | 54 | 1 | 0.0 | 0.0 | 0.00 | 0.00 | 0.00 | 84 | 1007.5 |
| 20260505033920 | 54 | 178 | 0.0 | 0.0 | 0.00 | 0.00 | 0.00 | 85 | 1007.5 |
| 20260505033418 | 54 | 214 | 0.0 | 0.0 | 0.00 | 0.00 | 0.00 | 85 | 1007.5 |
| 20260505032919 | 54 | 186 | 0.0 | 0.0 | 0.00 | 0.00 | 0.00 | 85 | 1007.5 |
| 20260505032418 | 54 | 352 | 0.0 | 1.0 | 0.00 | 0.00 | 0.00 | 85 | 1007.5 |
| 20260505031918 | 54 | 341 | 0.0 | 1.0 | 0.00 | 0.00 | 0.00 | 85 | 1007.5 |
| 20260505031419 | 54 | 127 | 0.0 | 2.0 | 0.00 | 0.00 | 0.00 | 85 | 1007.5 |
| 20260505030918 | 54 | 220 | 0.0 | 2.0 | 0.00 | 0.00 | 0.00 | 85 | 1007.5 |
| 20260505030419 | 54 | 312 | 1.0 | 2.0 | 0.00 | 0.00 | 0.00 | 85 | 1007.5 |
| 20260505025918 | 54 | 289 | 0.0 | 2.0 | 0.00 | 0.00 | 0.00 | 85 | 1007.5 |
| 20260505025418 | 54 | 338 | 0.0 | 1.0 | 0.00 | 0.00 | 0.00 | 85 | 1007.5 |
| 20260505024918 | 54 | 230 | 0.0 | 1.0 | 0.00 | 0.00 | 0.00 | 85 | 1007.5 |
| 20260505024419 | 54 | 272 | 0.0 | 0.0 | 0.00 | 0.00 | 0.00 | 85 | 1007.5 |
| 20260505023919 | 54 | 306 | 0.0 | 0.0 | 0.00 | 0.00 | 0.00 | 85 | 1007.5 |
| 20260505023418 | 54 | 192 | 0.0 | 0.0 | 0.00 | 0.00 | 0.00 | 85 | 1007.5 |
| 20260505022919 | 54 | 319 | 0.0 | 2.0 | 0.00 | 0.00 | 0.00 | 85 | 1007.5 |
| 20260505022418 | 54 | 245 | 0.0 | 0.0 | 0.00 | 0.00 | 0.00 | 86 | 1007.5 |
| 20260505021918 | 54 | 248 | 0.0 | 0.0 | 0.00 | 0.00 | 0.00 | 86 | 1007.8 |
| 20260505021418 | 54 | 338 | 1.0 | 2.0 | 0.00 | 0.00 | 0.00 | 85 | 1007.5 |
| 20260505020919 | 54 | 198 | 0.0 | 0.0 | 0.00 | 0.00 | 0.00 | 86 | 1007.5 |
| 20260505020418 | 54 | 222 | 0.0 | 0.0 | 0.00 | 0.00 | 0.00 | 86 | 1007.8 |
| 20260505015919 | 54 | 204 | 0.0 | 2.0 | 0.00 | 0.00 | 0.00 | 86 | 1007.8 |
| 20260505015418 | 54 | 319 | 0.0 | 1.0 | 0.00 | 0.00 | 0.00 | 86 | 1007.8 |
| 20260505014920 | 54 | 195 | 0.0 | 0.0 | 0.00 | 0.00 | 0.00 | 86 | 1007.5 |
| 20260505014418 | 54 | 345 | 0.0 | 1.0 | 0.00 | 0.00 | 0.00 | 86 | 1007.8 |
| 20260505013919 | 54 | 266 | 0.0 | 2.0 | 0.00 | 0.00 | 0.00 | 87 | 1007.5 |
| 20260505013420 | 53 | 296 | 1.0 | 1.0 | 0.00 | 0.00 | 0.00 | 87 | 1007.8 |
| 20260505012918 | 54 | 354 | 3.0 | 6.0 | 0.00 | 0.00 | 0.00 | 87 | 1007.8 |
| 20260505012419 | 54 | 250 | 0.0 | 2.0 | 0.00 | 0.00 | 0.00 | 87 | 1007.8 |
| 20260505011918 | 54 | 341 | 1.0 | 3.0 | 0.00 | 0.00 | 0.00 | 87 | 1008.1 |
| 20260505011418 | 54 | 157 | 0.0 | 1.0 | 0.00 | 0.00 | 0.00 | 86 | 1007.8 |
| 20260505010918 | 54 | 257 | 0.0 | 2.0 | 0.00 | 0.00 | 0.00 | 85 | 1008.1 |
| 20260505010418 | 55 | 204 | 0.0 | 1.0 | 0.00 | 0.00 | 0.00 | 84 | 1008.1 |
| 20260505005918 | 55 | 304 | 0.0 | 2.0 | 0.00 | 0.00 | 0.00 | 84 | 1008.1 |
| 20260505005419 | 55 | 301 | 0.0 | 1.0 | 0.00 | 0.00 | 0.00 | 83 | 1008.1 |
| 20260505004918 | 55 | 16 | 0.0 | 0.0 | 0.00 | 0.00 | 0.00 | 83 | 1008.1 |
| 20260505004418 | 55 | 251 | 0.0 | 0.0 | 0.00 | 0.00 | 0.00 | 83 | 1008.1 |
| 20260505003918 | 55 | 303 | 0.0 | 0.0 | 0.00 | 0.00 | 0.00 | 84 | 1008.1 |
| 20260505003419 | 55 | 253 | 0.0 | 0.0 | 0.00 | 0.00 | 0.00 | 84 | 1008.1 |
| 20260505002918 | 55 | 333 | 0.0 | 0.0 | 0.00 | 0.00 | 0.00 | 84 | 1008.1 |
| 20260505002419 | 55 | 298 | 0.0 | 1.0 | 0.00 | 0.00 | 0.00 | 84 | 1008.1 |
| 20260505001919 | 55 | 133 | 0.0 | 1.0 | 0.00 | 0.00 | 0.00 | 84 | 1008.1 |
| 20260505001420 | 55 | 316 | 0.0 | 1.0 | 0.00 | 0.00 | 0.00 | 84 | 1008.1 |
| 20260505000919 | 55 | 316 | 0.0 | 1.0 | 0.00 | 0.00 | 0.00 | 84 | 1008.1 |
| 20260505000420 | 55 | 319 | 1.0 | 2.0 | 0.00 | 0.00 | 0.00 | 84 | 1008.1 |
| 20260504235919 | 56 | 304 | 0.0 | 2.0 | 0.00 | 0.00 | 0.00 | 84 | 1008.1 |
| 20260504235418 | 56 | 331 | 0.0 | 1.0 | 0.00 | 0.00 | 0.00 | 84 | 1008.5 |
| 20260504234918 | 56 | 224 | 0.0 | 0.0 | 0.00 | 0.00 | 0.00 | 85 | 1008.5 |
| 20260504234419 | 56 | 196 | 0.0 | 0.0 | 0.00 | 0.00 | 0.00 | 86 | 1008.1 |
| 20260504233918 | 55 | 187 | 0.0 | 0.0 | 0.00 | 0.00 | 0.00 | 86 | 1008.1 |
| 20260504233420 | 55 | 198 | 0.0 | 0.0 | 0.00 | 0.00 | 0.00 | 87 | 1008.1 |
| 20260504232918 | 55 | 2 | 0.0 | 1.0 | 0.00 | 0.00 | 0.00 | 87 | 1008.1 |
| 20260504232418 | 55 | 295 | 1.0 | 2.0 | 0.00 | 0.00 | 0.00 | 86 | 1008.5 |
| 20260504231921 | 56 | 165 | 1.0 | 3.0 | 0.00 | 0.00 | 0.00 | 85 | 1008.5 |
| 20260504231419 | 56 | 228 | 0.0 | 5.0 | 0.00 | 0.00 | 0.00 | 85 | 1008.1 |
| 20260504230919 | 56 | 225 | 0.0 | 0.0 | 0.00 | 0.00 | 0.00 | 84 | 1008.5 |
| 20260504230418 | 57 | 10 | 0.0 | 0.0 | 0.00 | 0.00 | 0.00 | 84 | 1008.5 |
| 20260504225919 | 57 | 340 | 1.0 | 3.0 | 0.00 | 0.00 | 0.00 | 83 | 1008.5 |
| 20260504225419 | 58 | 292 | 1.0 | 3.0 | 0.00 | 0.00 | 0.00 | 82 | 1008.5 |
| 20260504224919 | 58 | 227 | 0.0 | 0.0 | 0.00 | 0.00 | 0.00 | 80 | 1008.1 |
| 20260504224420 | 57 | 139 | 0.0 | 0.0 | 0.00 | 0.00 | 0.00 | 79 | 1008.1 |
| 20260504223918 | 57 | 215 | 0.0 | 6.0 | 0.00 | 0.00 | 0.00 | 79 | 1008.5 |
| 20260504223418 | 58 | 282 | 0.0 | 1.0 | 0.00 | 0.00 | 0.00 | 80 | 1008.5 |
| 20260504222918 | 58 | 158 | 0.0 | 1.0 | 0.00 | 0.00 | 0.00 | 80 | 1008.1 |
| 20260504222418 | 58 | 300 | 0.0 | 0.0 | 0.00 | 0.00 | 0.00 | 81 | 1008.1 |
| 20260504221922 | 58 | 3 | 0.0 | 0.0 | 0.00 | 0.00 | 0.00 | 81 | 1008.5 |
| 20260504221425 | 58 | 281 | 0.0 | 0.0 | 0.00 | 0.00 | 0.00 | 81 | 1008.5 |
| 20260504220919 | 58 | 199 | 0.0 | 0.0 | 0.00 | 0.00 | 0.00 | 81 | 1008.5 |
| 20260504220419 | 58 | 201 | 0.0 | 0.0 | 0.00 | 0.00 | 0.00 | 81 | 1008.5 |
| 20260504215920 | 58 | 208 | 0.0 | 0.0 | 0.00 | 0.00 | 0.00 | 81 | 1008.5 |
| 20260504215420 | 58 | 194 | 0.0 | 0.0 | 0.00 | 0.00 | 0.00 | 81 | 1008.5 |
| 20260504214920 | 58 | 256 | 0.0 | 0.0 | 0.00 | 0.00 | 0.00 | 81 | 1008.5 |
| 20260504214421 | 58 | 249 | 0.0 | 0.0 | 0.00 | 0.00 | 0.00 | 80 | 1008.5 |
| 20260504213918 | 58 | 325 | 0.0 | 1.0 | 0.00 | 0.00 | 0.00 | 80 | 1008.5 |
| 20260504213418 | 59 | 233 | 0.0 | 0.0 | 0.00 | 0.00 | 0.00 | 79 | 1008.5 |
| 20260504212919 | 59 | 280 | 0.0 | 0.0 | 0.00 | 0.00 | 0.00 | 80 | 1008.5 |
| 20260504212420 | 59 | 236 | 0.0 | 1.0 | 0.00 | 0.00 | 0.00 | 80 | 1008.5 |
| 20260504211918 | 59 | 194 | 0.0 | 1.0 | 0.00 | 0.00 | 0.00 | 80 | 1008.5 |
| 20260504211418 | 59 | 307 | 0.0 | 1.0 | 0.00 | 0.00 | 0.00 | 79 | 1008.5 |
| 20260504210918 | 58 | 254 | 0.0 | 0.0 | 0.00 | 0.00 | 0.00 | 80 | 1008.5 |
| 20260504210419 | 58 | 307 | 0.0 | 0.0 | 0.00 | 0.00 | 0.00 | 80 | 1008.5 |
| 20260504205921 | 58 | 327 | 1.0 | 1.0 | 0.00 | 0.00 | 0.00 | 80 | 1008.5 |
| 20260504205418 | 58 | 321 | 1.0 | 2.0 | 0.00 | 0.00 | 0.00 | 80 | 1008.8 |
| 20260504204921 | 59 | 333 | 3.0 | 3.0 | 0.00 | 0.00 | 0.00 | 79 | 1008.5 |
| 20260504204419 | 59 | 134 | 0.0 | 0.0 | 0.00 | 0.00 | 0.00 | 78 | 1008.5 |
| 20260504203919 | 59 | 313 | 1.0 | 1.0 | 0.00 | 0.00 | 0.00 | 78 | 1008.8 |
| 20260504203419 | 60 | 200 | 0.0 | 0.0 | 0.00 | 0.00 | 0.00 | 78 | 1008.5 |
| 20260504202918 | 60 | 213 | 0.0 | 0.0 | 0.00 | 0.00 | 0.00 | 77 | 1008.5 |
| 20260504202421 | 60 | 206 | 0.0 | 0.0 | 0.00 | 0.00 | 0.00 | 77 | 1008.5 |
| 20260504201919 | 60 | 234 | 0.0 | 0.0 | 0.00 | 0.00 | 0.00 | 77 | 1008.8 |
| 20260504201418 | 60 | 235 | 0.0 | 0.0 | 0.00 | 0.00 | 0.00 | 76 | 1008.8 |
| 20260504200918 | 60 | 226 | 0.0 | 0.0 | 0.00 | 0.00 | 0.00 | 76 | 1008.5 |
| 20260504200420 | 60 | 227 | 0.0 | 0.0 | 0.00 | 0.00 | 0.00 | 75 | 1008.5 |
| 20260504195918 | 60 | 232 | 0.0 | 0.0 | 0.00 | 0.00 | 0.00 | 74 | 1008.1 |
| 20260504195419 | 61 | 226 | 0.0 | 0.0 | 0.00 | 0.00 | 0.00 | 73 | 1008.1 |
| 20260504194923 | 61 | 170 | 0.0 | 0.0 | 0.00 | 0.00 | 0.00 | 73 | 1008.5 |
| 20260504194419 | 60 | 268 | 0.0 | 0.0 | 0.00 | 0.00 | 0.00 | 73 | 1008.1 |
| 20260504193919 | 61 | 349 | 0.0 | 0.0 | 0.00 | 0.00 | 0.00 | 73 | 1008.1 |
| 20260504193420 | 61 | 309 | 0.0 | 0.0 | 0.00 | 0.00 | 0.00 | 73 | 1008.1 |
| 20260504192919 | 61 | 239 | 0.0 | 0.0 | 0.00 | 0.00 | 0.00 | 73 | 1008.1 |
| 20260504192419 | 61 | 236 | 0.0 | 0.0 | 0.00 | 0.00 | 0.00 | 73 | 1008.1 |
| 20260504191919 | 61 | 320 | 0.0 | 1.0 | 0.00 | 0.00 | 0.00 | 73 | 1008.1 |
| 20260504191418 | 61 | 245 | 0.0 | 1.0 | 0.00 | 0.00 | 0.00 | 73 | 1008.1 |
| 20260504190919 | 61 | 257 | 0.0 | 0.0 | 0.00 | 0.00 | 0.00 | 73 | 1008.1 |
| 20260504190423 | 61 | 234 | 0.0 | 1.0 | 0.00 | 0.00 | 0.00 | 73 | 1007.8 |
| 20260504185918 | 60 | 252 | 0.0 | 0.0 | 0.00 | 0.00 | 0.00 | 74 | 1007.8 |
| 20260504185423 | 60 | 157 | 0.0 | 2.0 | 0.00 | 0.00 | 0.00 | 73 | 1007.8 |
| 20260504184918 | 61 | 288 | 0.0 | 1.0 | 0.00 | 0.00 | 0.00 | 73 | 1008.1 |
| 20260504184422 | 61 | 106 | 0.0 | 2.0 | 0.00 | 0.00 | 0.00 | 72 | 1007.8 |
| 20260504183919 | 62 | 35 | 0.0 | 0.0 | 0.00 | 0.00 | 0.00 | 71 | 1007.8 |
| 20260504183419 | 61 | 12 | 0.0 | 0.0 | 0.00 | 0.00 | 0.00 | 72 | 1008.1 |
| 20260504182920 | 62 | 90 | 0.0 | 1.0 | 0.00 | 0.00 | 0.00 | 71 | 1007.8 |
| 20260504182421 | 63 | 272 | 0.0 | 0.0 | 0.00 | 0.00 | 0.00 | 70 | 1007.8 |
| 20260504181918 | 63 | 130 | 0.0 | 0.0 | 0.00 | 0.00 | 0.00 | 70 | 1007.8 |
| 20260504181423 | 62 | 90 | 0.0 | 0.0 | 0.00 | 0.00 | 0.00 | 70 | 1007.8 |
| 20260504180919 | 62 | 316 | 0.0 | 1.0 | 0.00 | 0.00 | 0.00 | 70 | 1007.8 |
| 20260504180423 | 62 | 294 | 0.0 | 1.0 | 0.00 | 0.00 | 0.00 | 70 | 1007.8 |
| 20260504175919 | 63 | 279 | 0.0 | 1.0 | 0.00 | 0.00 | 0.00 | 69 | 1007.8 |
| 20260504175418 | 63 | 120 | 0.0 | 1.0 | 0.00 | 0.00 | 0.00 | 68 | 1007.8 |
| 20260504174921 | 64 | 291 | 0.0 | 1.0 | 0.00 | 0.00 | 0.00 | 67 | 1007.5 |
| 20260504174419 | 64 | 15 | 0.0 | 0.0 | 0.00 | 0.00 | 0.00 | 66 | 1007.5 |
| 20260504173923 | 64 | 171 | 0.0 | 0.0 | 0.00 | 0.00 | 0.00 | 67 | 1007.8 |
| 20260504173418 | 63 | 326 | 0.0 | 0.0 | 0.00 | 0.00 | 0.00 | 68 | 1007.8 |
| 20260504172922 | 63 | 145 | 0.0 | 2.0 | 0.00 | 0.00 | 0.00 | 68 | 1007.8 |
| 20260504172421 | 64 | 350 | 0.0 | 0.0 | 0.00 | 0.00 | 0.00 | 67 | 1008.1 |
| 20260504171918 | 63 | 206 | 0.0 | 0.0 | 0.00 | 0.00 | 0.00 | 69 | 1008.1 |
| 20260504171422 | 63 | 215 | 0.0 | 1.0 | 0.00 | 0.00 | 0.00 | 69 | 1007.8 |
| 20260504170921 | 62 | 187 | 0.0 | 1.0 | 0.00 | 0.00 | 0.00 | 70 | 1007.8 |
| 20260504170421 | 62 | 140 | 0.0 | 0.0 | 0.00 | 0.00 | 0.00 | 72 | 1007.8 |